Content
SEND FEEDBACK

Daily
Averages
Monthly
Summary
United States of America

MILWAUKEE, WISCONSIN


Home > North America > United States > Wisconsin
Elevation: 672 feet     Latitude: 42 57N     Longitude: 087 54W

WEATHER
 
SELECT A DAY
Number of Records: 199,551;   Date Range: 1/1/95 - 7/7/14
 
SHARE

PRINT THIS DATA

[ ← Previous Day ]
WEATHER ALMANAC - APRIL 17, 2013
[ Next Day → ]
[ °C ]   °F
Weather ElementAverageHighLow
Temperature39.4 °F43 °F (8:52 pm)37 °F (5:52 am)
Dewpoint36.8 °F41 °F (8:52 pm)30.9 °F (1:52 am)
Humidity90.6 %100 % (3:05 pm)67 % (1:52 am)
Barometer30.14 in30.34 in (2:52 am)29.88 in (11:12 pm)
Wind Speed13.4 mph19.6 mph (7:04 pm)
Wind Gust29.9 mph (6:19 pm)
Weather ElementAverage
Visibility7.1 mi
Wind DirectionENE (61.8 °)

Weather ElementTotal
Precipitation0.97 in
Heating Degree Days25 (Base 65)
Averaged from 38 records on April 17, 2013
WEATHER CONDITIONS BREAKOUT
WIND DIRECTION BREAKOUT
WEATHER BY HOUR - APRIL 17, 2013
[ °C ]   °F
Local TimeTemperatureDewpointHumidityBarometerVisibilityWind DirectionWind SpeedGust SpeedPrecipitationEventsConditions
1:52 AM41.0 °F30.9 °F67 %30.33 in10.0 miNNE (30°)5.8 mphOvercast
2:52 AM41.0 °F30.9 °F67 %30.34 in10.0 miNNE (30°)6.9 mphOvercast
3:52 AM39.9 °F32.0 °F73 %30.33 in10.0 miNE (40°)11.5 mphOvercast
4:52 AM37.9 °F33.1 °F83 %30.32 in10.0 miNE (40°)11.5 mphScattered Clouds
5:52 AM37.0 °F34.0 °F89 %30.30 in10.0 miNE (50°)12.7 mphMostly Cloudy
6:52 AM37.9 °F34.0 °F86 %30.30 in10.0 miNE (50°)16.1 mphMostly Cloudy
7:52 AM39.9 °F33.1 °F77 %30.33 in10.0 miENE (70°)11.5 mphOvercast
8:52 AM41.0 °F34.0 °F76 %30.31 in10.0 miENE (60°)16.1 mph19.6 mphOvercast
9:52 AM39.0 °F34.0 °F82 %30.27 in8.0 miNE (50°)18.4 mph28.8 mph0.00 inRainLight Rain
10:52 AM39.0 °F35.1 °F86 %30.30 in10.0 miNE (50°)10.4 mph19.6 mph0.00 inOvercast
11:52 AM39.9 °F35.1 °F83 %30.21 in10.0 miENE (70°)16.1 mph0.01 inRainLight Rain
12:52 PM39.9 °F36.0 °F86 %30.25 in10.0 miEast (90°)8.1 mph0.05 inRainLight Rain
1:07 PM39.2 °F35.6 °F87 %30.22 in8.0 miNNE (30°)9.2 mph0.01 inRain-ThunderstormLight Thunderstorms and Rain
1:27 PM39.2 °F35.6 °F87 %30.17 in2.5 miNE (40°)13.8 mph0.09 inRain-ThunderstormThunderstorms and Rain
1:36 PM37.4 °F35.6 °F93 %30.19 in3.0 miNE (40°)11.5 mph0.12 inRain-ThunderstormThunderstorms and Rain
1:52 PM37.9 °F36.0 °F93 %30.20 in4.0 miNE (50°)10.4 mph0.17 inRain-ThunderstormThunderstorms and Rain
2:05 PM37.4 °F35.6 °F93 %30.16 in2.0 miNE (40°)12.7 mph0.05 inRain-ThunderstormThunderstorms and Rain
2:52 PM37.9 °F37.0 °F97 %30.21 in2.0 miNorth (10°)8.1 mph0.21 inRain-ThunderstormThunderstorms and Rain
3:05 PM37.4 °F37.4 °F100 %30.17 in1.8 miENE (60°)11.5 mph0.06 inRain-ThunderstormThunderstorms and Rain
3:52 PM37.4 °F37.4 °F100 %30.08 in2.0 miNE (50°)17.3 mph21.9 mphRainRain
4:08 PM37.4 °F37.4 °F100 %30.10 in4.0 miNE (40°)15.0 mph19.6 mph0.02 inRainLight Rain
4:16 PM37.4 °F37.4 °F100 %30.08 in0.5 miNE (40°)16.1 mph0.02 inRainLight Rain
4:37 PM39.2 °F37.4 °F93 %30.08 in1.2 miNE (50°)12.7 mph0.03 inOvercast
4:52 PM39.0 °F37.9 °F96 %30.10 in1.2 miNNE (30°)15.0 mph21.9 mph0.03 inOvercast
5:23 PM39.2 °F37.4 °F93 %30.10 in10.0 miNE (50°)11.5 mphOvercast
5:52 PM39.9 °F39.0 °F97 %30.09 in10.0 miENE (60°)17.3 mphOvercast
6:00 PM39.2 °F39.2 °F100 %30.05 in10.0 miENE (70°)17.3 mphOvercast
6:19 PM39.2 °F39.2 °F100 %30.05 in9.0 miNorth (360°)17.3 mph29.9 mph0.00 inRainLight Rain
6:29 PM39.2 °F39.2 °F100 %30.01 in7.0 miENE (60°)18.4 mph24.2 mph0.00 inRainLight Rain
6:52 PM39.9 °F39.0 °F97 %30.05 in10.0 miNE (50°)16.1 mph23.0 mph0.00 inOvercast
7:04 PM39.2 °F39.2 °F100 %29.98 in10.0 miENE (70°)19.6 mph26.5 mphOvercast
7:26 PM41.0 °F39.2 °F93 %29.96 in10.0 miNE (50°)18.4 mph27.6 mphOvercast
7:52 PM42.1 °F39.9 °F92 %30.00 in10.0 miENE (60°)16.1 mph26.5 mphOvercast
8:52 PM43.0 °F41.0 °F93 %29.97 in10.0 miEast (100°)16.1 mph27.6 mphOvercast
9:52 PM42.1 °F41.0 °F96 %29.95 in10.0 miENE (70°)9.2 mph23.0 mph0.00 inRainLight Rain
10:52 PM41.0 °F39.9 °F96 %29.91 in5.0 miEast (90°)10.4 mph0.03 inRainLight Rain
11:12 PM42.8 °F41.0 °F93 %29.88 in4.0 miEast (100°)12.7 mph0.02 inRainLight Rain
11:52 PM41.0 °F41.0 °F100 %29.90 in4.0 miNE (50°)9.2 mph0.05 inRainLight Rain
Hourly data recorded from KMKE, located miles away from Milwaukee, Wisconsin







STORIES FROM OUR PARTNERS